When you browse on this site, cookies collect data to enhance your experience and personalize the content and advertising you see.
Visit our Privacy Policy to learn more. By continuing to use the site, you agree to this use of cookies and data.
  • In Austria
  • List of Countries
  • For 7 days
  • Water Temperature
  • Weather Map
  • News
  • Weather Widgets
  • user-avatar
    Login

    Hourly Weather Hobart

    Today, 22 October, Tuesday

    Time Temperature Precipitation Wind Pressure Humidity
    00:00 +6°C° 0 mm 1 mps 754 mmHg 93%
    01:00 +5°C° 0 mm 2 mps 754 mmHg 93%
    02:00 +6°C° 0 mm 1 mps 754 mmHg 94%
    03:00 +6°C° 0 mm 1 mps 753 mmHg 94%
    04:00 +5°C° 0 mm 1 mps 753 mmHg 95%
    05:00 +7°C° 0 mm 1 mps 754 mmHg 88%
    06:00 +8°C° 0 mm 1 mps 754 mmHg 81%
    07:00 +10°C° 0 mm 1 mps 754 mmHg 75%
    08:00 +12°C° 0 mm 1 mps 754 mmHg 65%
    09:00 +15°C° 0 mm 1 mps 754 mmHg 55%
    10:00 +19°C° 0 mm 1 mps 754 mmHg 45%
    11:00 +20°C° 0 mm 1 mps 753 mmHg 43%
    12:00 +20°C° 0 mm 2 mps 753 mmHg 41%
    13:00 +23°C° 0 mm 2 mps 753 mmHg 39%
    14:00 +21°C° 0 mm 2 mps 753 mmHg 44%
    15:00 +20°C° 0 mm 2 mps 752 mmHg 49%
    16:00 +20°C° 0 mm 2 mps 752 mmHg 52%
    17:00 +17°C° 0 mm 2 mps 752 mmHg 65%
    18:00 +14°C° 0 mm 1 mps 752 mmHg 79%
    19:00 +10°C° 0 mm 1 mps 752 mmHg 92%
    20:00 +10°C° 0 mm 1 mps 752 mmHg 93%
    21:00 +10°C° 0 mm 1 mps 752 mmHg 94%
    22:00 +10°C° 0 mm 1 mps 751 mmHg 94%
    23:00 +10°C° 0 mm 1 mps 751 mmHg 90%

    Tomorrow, 23 October, Wednesday

    Time Temperature Precipitation Wind Pressure Humidity
    00:00 +11°C° 0 mm 1 mps 751 mmHg 86%
    01:00 +10°C° 0 mm 2 mps 751 mmHg 82%
    02:00 +10°C° 0 mm 2 mps 750 mmHg 77%
    03:00 +9°C° 0 mm 2 mps 750 mmHg 73%
    04:00 +9°C° 0 mm 2 mps 749 mmHg 68%
    05:00 +10°C° 0 mm 2 mps 749 mmHg 63%
    06:00 +12°C° 0 mm 2 mps 749 mmHg 58%
    07:00 +12°C° 0 mm 2 mps 749 mmHg 53%
    08:00 +15°C° 0 mm 2 mps 750 mmHg 44%
    09:00 +18°C° 0 mm 2 mps 750 mmHg 34%
    10:00 +21°C° 0 mm 2 mps 750 mmHg 25%
    11:00 +21°C° 0 mm 2 mps 749 mmHg 26%
    12:00 +23°C° 0 mm 2 mps 749 mmHg 27%
    13:00 +22°C° 0 mm 3 mps 749 mmHg 28%
    14:00 +21°C° 0 mm 3 mps 749 mmHg 35%
    15:00 +20°C° 0 mm 3 mps 749 mmHg 42%
    16:00 +19°C° 0 mm 4 mps 749 mmHg 49%
    17:00 +16°C° 0 mm 3 mps 749 mmHg 63%
    18:00 +14°C° 0 mm 2 mps 749 mmHg 77%
    19:00 +10°C° 0 mm 2 mps 749 mmHg 91%
    20:00 +11°C° 0 mm 1 mps 749 mmHg 92%
    21:00 +11°C° 0 mm 1 mps 750 mmHg 92%
    22:00 +11°C° 0 mm 1 mps 750 mmHg 93%
    23:00 +11°C° 0 mm 1 mps 749 mmHg 93%

    Day after tomorrow, 24 October, Thursday

    Time Temperature Precipitation Wind Pressure Humidity
    00:00 +10°C° 0 mm 1 mps 749 mmHg 94%
    01:00 +9°C° 0 mm 2 mps 749 mmHg 95%
    02:00 +8°C° 0 mm 2 mps 748 mmHg 95%
    03:00 +8°C° 0 mm 2 mps 748 mmHg 96%
    04:00 +8°C° 0 mm 2 mps 747 mmHg 96%
    05:00 +9°C° 0 mm 2 mps 747 mmHg 89%
    06:00 +10°C° 0 mm 2 mps 747 mmHg 82%
    07:00 +12°C° 0 mm 2 mps 747 mmHg 75%
    08:00 +15°C° 0 mm 2 mps 746 mmHg 61%
    09:00 +19°C° 0 mm 2 mps 746 mmHg 47%
    10:00 +23°C° 0 mm 2 mps 746 mmHg 33%
    11:00 +25°C° 0 mm 2 mps 745 mmHg 31%
    12:00 +26°C° 0 mm 2 mps 745 mmHg 29%
    13:00 +28°C° 0 mm 3 mps 744 mmHg 27%
    14:00 +28°C° 0 mm 3 mps 744 mmHg 28%
    15:00 +28°C° 0 mm 3 mps 743 mmHg 29%
    16:00 +28°C° 0 mm 3 mps 742 mmHg 29%
    17:00 +26°C° 0 mm 3 mps 742 mmHg 37%
    18:00 +22°C° 0 mm 3 mps 741 mmHg 45%
    19:00 +20°C° 0 mm 3 mps 741 mmHg 53%
    20:00 +19°C° 0 mm 3 mps 740 mmHg 53%
    21:00 +18°C° 0 mm 3 mps 739 mmHg 54%
    22:00 +16°C° 0 mm 3 mps 739 mmHg 54%
    23:00 +16°C° 0 mm 3 mps 737 mmHg 53%

    25 October, Friday

    Time Temperature Precipitation Wind Pressure Humidity
    00:00 +16°C° 0 mm 3 mps 736 mmHg 51%
    01:00 +16°C° 0 mm 3 mps 735 mmHg 49%
    02:00 +16°C° 0 mm 3 mps 734 mmHg 47%
    03:00 +16°C° 0 mm 3 mps 733 mmHg 45%
    04:00 +17°C° 0 mm 4 mps 732 mmHg 43%
    05:00 +17°C° 0 mm 4 mps 733 mmHg 48%
    06:00 +17°C° 0 mm 5 mps 733 mmHg 53%
    07:00 +17°C° 0 mm 5 mps 733 mmHg 57%
    08:00 +16°C° 0 mm 6 mps 734 mmHg 56%
    09:00 +16°C° 0 mm 6 mps 734 mmHg 54%
    10:00 +15°C° 0 mm 6 mps 734 mmHg 52%
    11:00 +16°C° 0 mm 6 mps 734 mmHg 46%
    12:00 +17°C° 0 mm 6 mps 734 mmHg 40%
    13:00 +19°C° 0 mm 5 mps 734 mmHg 34%
    14:00 +17°C° 0 mm 6 mps 734 mmHg 37%
    15:00 +16°C° 0 mm 6 mps 734 mmHg 40%
    16:00 +15°C° 0 mm 6 mps 733 mmHg 44%
    17:00 +14°C° 0 mm 6 mps 733 mmHg 51%
    18:00 +12°C° 0 mm 5 mps 734 mmHg 59%
    19:00 +9°C° 0 mm 5 mps 734 mmHg 67%
    20:00 +8°C° 0 mm 5 mps 733 mmHg 70%
    21:00 +7°C° 0 mm 5 mps 733 mmHg 73%
    22:00 +6°C° 0 mm 5 mps 733 mmHg 76%
    23:00 +6°C° 0 mm 5 mps 732 mmHg 75%

    26 October, Saturday

    Time Temperature Precipitation Wind Pressure Humidity
    00:00 +6°C° 0 mm 5 mps 731 mmHg 75%
    01:00 +7°C° 0 mm 5 mps 731 mmHg 75%
    02:00 +6°C° 0.4 mm 5 mps 730 mmHg 78%
    03:00 +6°C° 0.4 mm 4 mps 730 mmHg 81%
    04:00 +6°C° 0.4 mm 4 mps 729 mmHg 84%
    05:00 +6°C° 0.3 mm 4 mps 729 mmHg 83%
    06:00 +7°C° 0.3 mm 5 mps 729 mmHg 81%
    07:00 +7°C° 0.3 mm 5 mps 729 mmHg 80%
    08:00 +8°C° 0 mm 6 mps 730 mmHg 71%
    09:00 +9°C° 0 mm 6 mps 730 mmHg 62%
    10:00 +11°C° 0 mm 6 mps 730 mmHg 54%
    11:00 +9°C° 0.4 mm 6 mps 731 mmHg 64%
    12:00 +8°C° 0.4 mm 6 mps 731 mmHg 73%
    13:00 +7°C° 0.4 mm 6 mps 732 mmHg 83%
    14:00 +8°C° 0.1 mm 6 mps 732 mmHg 72%
    15:00 +9°C° 0.1 mm 7 mps 733 mmHg 62%
    16:00 +10°C° 0.1 mm 7 mps 733 mmHg 51%
    17:00 +9°C° 0 mm 7 mps 734 mmHg 56%
    18:00 +8°C° 0 mm 6 mps 735 mmHg 61%
    19:00 +7°C° 0 mm 6 mps 736 mmHg 66%
    20:00 +6°C° 0 mm 5 mps 737 mmHg 70%
    21:00 +6°C° 0 mm 5 mps 737 mmHg 74%
    22:00 +5°C° 0 mm 5 mps 738 mmHg 79%
    23:00 +5°C° 0 mm 4 mps 738 mmHg 80%

    27 October, Sunday

    Time Temperature Precipitation Wind Pressure Humidity
    00:00 +5°C° 0 mm 4 mps 738 mmHg 81%
    01:00 +4°C° 0 mm 4 mps 738 mmHg 83%
    02:00 +4°C° 0 mm 4 mps 739 mmHg 83%
    03:00 +4°C° 0 mm 3 mps 739 mmHg 83%
    04:00 +4°C° 0 mm 3 mps 740 mmHg 83%
    05:00 +5°C° 0.1 mm 3 mps 740 mmHg 82%
    06:00 +5°C° 0.1 mm 3 mps 741 mmHg 81%
    07:00 +6°C° 0.1 mm 4 mps 742 mmHg 79%
    08:00 +7°C° 0.1 mm 4 mps 742 mmHg 71%
    09:00 +10°C° 0.1 mm 4 mps 742 mmHg 62%
    10:00 +10°C° 0.1 mm 5 mps 743 mmHg 53%
    11:00 +10°C° 0.1 mm 5 mps 743 mmHg 52%
    12:00 +10°C° 0.1 mm 5 mps 744 mmHg 50%
    13:00 +12°C° 0.1 mm 5 mps 744 mmHg 49%
    14:00 +12°C° 0 mm 5 mps 744 mmHg 48%
    15:00 +10°C° 0 mm 5 mps 745 mmHg 47%
    16:00 +10°C° 0 mm 6 mps 745 mmHg 46%
    17:00 +8°C° 0 mm 5 mps 746 mmHg 53%
    18:00 +7°C° 0 mm 5 mps 747 mmHg 59%
    19:00 +5°C° 0 mm 4 mps 748 mmHg 66%
    20:00 +4°C° 0 mm 4 mps 748 mmHg 71%
    21:00 +4°C° 0 mm 4 mps 749 mmHg 76%
    22:00 +3°C° 0 mm 3 mps 750 mmHg 81%
    23:00 +2°C° 0 mm 3 mps 750 mmHg 84%

    28 October, Monday

    Time Temperature Precipitation Wind Pressure Humidity
    00:00 +2°C° 0 mm 3 mps 750 mmHg 87%
    01:00 +1°C° 0 mm 3 mps 751 mmHg 90%
    02:00 +1°C° 0 mm 3 mps 751 mmHg 91%
    03:00 +2°C° 0 mm 2 mps 751 mmHg 92%
    04:00 +2°C° 0 mm 2 mps 752 mmHg 92%
    05:00 +3°C° 0 mm 2 mps 752 mmHg 84%
    06:00 +5°C° 0 mm 2 mps 752 mmHg 76%
    07:00 +8°C° 0 mm 1 mps 753 mmHg 68%
    08:00 +11°C° 0 mm 1 mps 753 mmHg 57%
    09:00 +13°C° 0 mm 1 mps 753 mmHg 46%
    10:00 +16°C° 0 mm 1 mps 753 mmHg 35%
    11:00 +17°C° 0 mm 2 mps 753 mmHg 33%
    12:00 +18°C° 0 mm 2 mps 753 mmHg 31%
    13:00 +19°C° 0 mm 3 mps 752 mmHg 28%
    14:00 +18°C° 0 mm 3 mps 752 mmHg 33%
    15:00 +17°C° 0 mm 3 mps 752 mmHg 37%
    16:00 +16°C° 0 mm 3 mps 752 mmHg 41%
    17:00 +13°C° 0 mm 3 mps 752 mmHg 54%
    18:00 +10°C° 0 mm 2 mps 752 mmHg 67%
    19:00 +9°C° 0 mm 1 mps 752 mmHg 81%
    20:00 +8°C° 0 mm 1 mps 752 mmHg 81%
    21:00 +8°C° 0 mm 1 mps 752 mmHg 81%
    22:00 +8°C° 0 mm 1 mps 752 mmHg 82%
    23:00 +7°C° 0 mm 1 mps 751 mmHg 79%
    Show more